| time (UTC) | temp C | wind direction | speed KPH | gust KPH | rain 1hr cm | rain 24hr cm | rain mn cm | humidity % | barometer mb |
| 20260507023112 | 15 | 67 | 4.8 | 6.4 | 0.00 | 0.00 | 0.00 | 59 | 1017.7 |
| 20260507022609 | 15 | 100 | 1.6 | 6.4 | 0.00 | 0.00 | 0.00 | 58 | 1017.8 |
| 20260507022104 | 15 | 45 | 3.2 | 9.7 | 0.00 | 0.00 | 0.00 | 58 | 1017.5 |
| 20260507021601 | 15 | 61 | 3.2 | 8.0 | 0.00 | 0.00 | 0.00 | 58 | 1017.3 |
| 20260507021057 | 15 | 91 | 4.8 | 6.4 | 0.00 | 0.00 | 0.00 | 58 | 1017.4 |
| 20260507020555 | 15 | 74 | 3.2 | 4.8 | 0.00 | 0.00 | 0.00 | 57 | 1017.2 |
| 20260507020051 | 15 | 72 | 3.2 | 4.8 | 0.00 | 0.00 | 0.00 | 56 | 1017.3 |
| 20260507015550 | 15 | 89 | 0.0 | 4.8 | 0.00 | 0.00 | 0.00 | 55 | 1017.1 |
| 20260507015047 | 15 | 21 | 4.8 | 6.4 | 0.00 | 0.00 | 0.00 | 55 | 1017.0 |
| 20260507014543 | 16 | 85 | 3.2 | 6.4 | 0.00 | 0.00 | 0.00 | 54 | 1016.9 |
| 20260507014039 | 16 | 61 | 3.2 | 11.3 | 0.00 | 0.00 | 0.00 | 53 | 1016.8 |
| 20260507013536 | 16 | 92 | 4.8 | 9.7 | 0.00 | 0.00 | 0.00 | 53 | 1016.8 |
| 20260507013033 | 16 | 51 | 8.0 | 11.3 | 0.00 | 0.00 | 0.00 | 53 | 1016.7 |
| 20260507012530 | 16 | 72 | 3.2 | 6.4 | 0.00 | 0.00 | 0.00 | 53 | 1016.7 |
| 20260507012026 | 16 | 46 | 0.0 | 6.4 | 0.00 | 0.00 | 0.00 | 52 | 1016.8 |
| 20260507011524 | 16 | 62 | 8.0 | 8.0 | 0.00 | 0.00 | 0.00 | 51 | 1016.7 |
| 20260507011020 | 16 | 52 | 4.8 | 6.4 | 0.00 | 0.00 | 0.00 | 51 | 1016.7 |
| 20260507010514 | 17 | 67 | 4.8 | 8.0 | 0.00 | 0.00 | 0.00 | 50 | 1016.4 |
| 20260507010011 | 17 | 42 | 9.7 | 9.7 | 0.00 | 0.00 | 0.00 | 49 | 1016.5 |
| 20260507005509 | 17 | 61 | 8.0 | 9.7 | 0.00 | 0.00 | 0.00 | 49 | 1016.4 |
| 20260507005005 | 17 | 26 | 4.8 | 19.3 | 0.00 | 0.00 | 0.00 | 49 | 1016.3 |
| 20260507004502 | 17 | 79 | 4.8 | 9.7 | 0.00 | 0.00 | 0.00 | 49 | 1016.3 |
| 20260507003959 | 17 | 34 | 6.4 | 9.7 | 0.00 | 0.00 | 0.00 | 48 | 1016.1 |
| 20260507003454 | 17 | 82 | 0.0 | 8.0 | 0.00 | 0.00 | 0.00 | 49 | 1016.4 |
| 20260507002949 | 17 | 85 | 3.2 | 9.7 | 0.00 | 0.00 | 0.00 | 48 | 1016.1 |
| 20260507002447 | 17 | 91 | 9.7 | 14.5 | 0.00 | 0.00 | 0.00 | 47 | 1016.2 |
| 20260507001943 | 18 | 101 | 3.2 | 9.7 | 0.00 | 0.00 | 0.00 | 48 | 1016.3 |
| 20260507001440 | 18 | 69 | 6.4 | 14.5 | 0.00 | 0.00 | 0.00 | 47 | 1016.1 |
| 20260507000937 | 18 | 61 | 9.7 | 11.3 | 0.00 | 0.00 | 0.00 | 47 | 1016.2 |
| 20260507000435 | 18 | 38 | 9.7 | 9.7 | 0.00 | 0.00 | 0.00 | 47 | 1016.1 |
| 20260506235928 | 18 | 122 | 0.0 | 8.0 | 0.00 | 0.00 | 0.00 | 46 | 1016.1 |
| 20260506235426 | 18 | 63 | 8.0 | 9.7 | 0.00 | 0.00 | 0.00 | 47 | 1016.2 |
| 20260506234921 | 18 | 52 | 6.4 | 11.3 | 0.00 | 0.00 | 0.00 | 46 | 1016.2 |
| 20260506234420 | 18 | 108 | 3.2 | 9.7 | 0.00 | 0.00 | 0.00 | 46 | 1016.1 |
| 20260506233917 | 18 | 116 | 3.2 | 6.4 | 0.00 | 0.00 | 0.00 | 46 | 1016.0 |
| 20260506233413 | 18 | 83 | 6.4 | 8.0 | 0.00 | 0.00 | 0.00 | 46 | 1015.8 |
| 20260506232910 | 18 | 50 | 8.0 | 9.7 | 0.00 | 0.00 | 0.00 | 45 | 1015.8 |
| 20260506232406 | 18 | 80 | 9.7 | 12.9 | 0.00 | 0.00 | 0.00 | 45 | 1015.9 |
| 20260506231902 | 18 | 94 | 6.4 | 8.0 | 0.00 | 0.00 | 0.00 | 46 | 1015.8 |
| 20260506231400 | 18 | 23 | 6.4 | 14.5 | 0.00 | 0.00 | 0.00 | 46 | 1015.5 |
| 20260506230857 | 18 | 106 | 6.4 | 12.9 | 0.00 | 0.00 | 0.00 | 46 | 1015.3 |
| 20260506230354 | 19 | 76 | 8.0 | 12.9 | 0.00 | 0.00 | 0.00 | 46 | 1015.8 |
| 20260506225849 | 19 | 56 | 8.0 | 12.9 | 0.00 | 0.00 | 0.00 | 45 | 1015.6 |
| 20260506225347 | 19 | 63 | 9.7 | 9.7 | 0.00 | 0.00 | 0.00 | 45 | 1015.4 |
| 20260506224844 | 19 | 104 | 3.2 | 9.7 | 0.00 | 0.00 | 0.00 | 44 | 1015.3 |
| 20260506224342 | 19 | 114 | 8.0 | 14.5 | 0.00 | 0.00 | 0.00 | 45 | 1015.4 |
| 20260506223838 | 19 | 50 | 9.7 | 19.3 | 0.00 | 0.00 | 0.00 | 44 | 1015.4 |
| 20260506223333 | 20 | 70 | 9.7 | 12.9 | 0.00 | 0.00 | 0.00 | 44 | 1015.1 |
| 20260506222831 | 19 | 92 | 12.9 | 16.1 | 0.00 | 0.00 | 0.00 | 46 | 1015.1 |
| 20260506222326 | 20 | 88 | 8.0 | 16.1 | 0.00 | 0.00 | 0.00 | 43 | 1015.4 |
| 20260506221824 | 20 | 45 | 4.8 | 11.3 | 0.00 | 0.00 | 0.00 | 43 | 1015.1 |
| 20260506221321 | 19 | 64 | 6.4 | 17.7 | 0.00 | 0.00 | 0.00 | 44 | 1015.3 |
| 20260506220819 | 20 | 63 | 6.4 | 14.5 | 0.00 | 0.00 | 0.00 | 43 | 1015.2 |
| 20260506220319 | 20 | 68 | 12.9 | 17.7 | 0.00 | 0.00 | 0.00 | 43 | 1015.2 |
| 20260506215816 | 20 | 89 | 0.0 | 12.9 | 0.00 | 0.00 | 0.00 | 42 | 1015.1 |
| 20260506215312 | 20 | 82 | 8.0 | 14.5 | 0.00 | 0.00 | 0.00 | 42 | 1015.2 |
| 20260506214808 | 20 | 102 | 6.4 | 16.1 | 0.00 | 0.00 | 0.00 | 44 | 1015.1 |
| 20260506214305 | 20 | 72 | 3.2 | 17.7 | 0.00 | 0.00 | 0.00 | 44 | 1015.4 |
| 20260506213804 | 20 | 82 | 6.4 | 14.5 | 0.00 | 0.00 | 0.00 | 45 | 1015.3 |
| 20260506213300 | 20 | 79 | 8.0 | 11.3 | 0.00 | 0.00 | 0.00 | 45 | 1015.4 |
| 20260506212758 | 20 | 269 | 1.6 | 12.9 | 0.00 | 0.00 | 0.00 | 44 | 1015.6 |
| 20260506212253 | 20 | 102 | 6.4 | 9.7 | 0.00 | 0.00 | 0.00 | 43 | 1015.3 |
| 20260506211748 | 20 | 126 | 6.4 | 6.4 | 0.00 | 0.00 | 0.00 | 44 | 1015.3 |
| 20260506211245 | 20 | 291 | 3.2 | 12.9 | 0.00 | 0.00 | 0.00 | 45 | 1015.5 |
| 20260506210742 | 20 | 124 | 3.2 | 6.4 | 0.00 | 0.00 | 0.00 | 44 | 1015.5 |
| 20260506210239 | 20 | 99 | 6.4 | 9.7 | 0.00 | 0.00 | 0.00 | 48 | 1015.7 |
| 20260506205736 | 20 | 69 | 8.0 | 14.5 | 0.00 | 0.00 | 0.00 | 45 | 1015.8 |
| 20260506205231 | 20 | 86 | 9.7 | 12.9 | 0.00 | 0.00 | 0.00 | 44 | 1015.7 |
| 20260506204729 | 20 | 66 | 0.0 | 12.9 | 0.00 | 0.00 | 0.00 | 48 | 1015.8 |
| 20260506204226 | 20 | 239 | 0.0 | 9.7 | 0.00 | 0.00 | 0.00 | 46 | 1015.8 |
| 20260506203724 | 20 | 64 | 6.4 | 11.3 | 0.00 | 0.00 | 0.00 | 47 | 1015.8 |
| 20260506203221 | 20 | 44 | 9.7 | 12.9 | 0.00 | 0.00 | 0.00 | 47 | 1015.8 |
| 20260506202719 | 20 | 232 | 3.2 | 12.9 | 0.00 | 0.00 | 0.00 | 46 | 1016.0 |
| 20260506202215 | 20 | 8 | 3.2 | 16.1 | 0.00 | 0.00 | 0.00 | 47 | 1015.9 |
| 20260506201712 | 20 | 137 | 4.8 | 9.7 | 0.00 | 0.00 | 0.00 | 47 | 1016.0 |
| 20260506201209 | 20 | 161 | 1.6 | 12.9 | 0.00 | 0.00 | 0.00 | 48 | 1015.8 |
| 20260506200705 | 19 | 79 | 9.7 | 12.9 | 0.00 | 0.00 | 0.00 | 49 | 1015.9 |
| 20260506200202 | 19 | 70 | 9.7 | 20.9 | 0.00 | 0.00 | 0.00 | 49 | 1015.8 |
| 20260506195658 | 19 | 60 | 3.2 | 11.3 | 0.00 | 0.00 | 0.00 | 48 | 1016.0 |
| 20260506195155 | 18 | 91 | 3.2 | 19.3 | 0.00 | 0.00 | 0.00 | 50 | 1016.0 |
| 20260506194653 | 18 | 70 | 6.4 | 14.5 | 0.00 | 0.00 | 0.00 | 50 | 1015.9 |
| 20260506194149 | 18 | 52 | 4.8 | 19.3 | 0.00 | 0.00 | 0.00 | 48 | 1015.8 |
| 20260506193646 | 18 | 98 | 9.7 | 14.5 | 0.00 | 0.00 | 0.00 | 49 | 1015.8 |
| 20260506193143 | 18 | 87 | 8.0 | 17.7 | 0.00 | 0.00 | 0.00 | 49 | 1015.7 |
| 20260506192640 | 18 | 10 | 3.2 | 17.7 | 0.00 | 0.00 | 0.00 | 50 | 1015.8 |
| 20260506192136 | 17 | 71 | 8.0 | 17.7 | 0.00 | 0.00 | 0.00 | 51 | 1015.8 |
| 20260506191633 | 18 | 61 | 12.9 | 22.5 | 0.00 | 0.00 | 0.00 | 50 | 1016.0 |
| 20260506191129 | 18 | 58 | 4.8 | 14.5 | 0.00 | 0.00 | 0.00 | 52 | 1015.8 |
| 20260506190627 | 18 | 55 | 11.3 | 14.5 | 0.00 | 0.00 | 0.00 | 51 | 1016.1 |
| 20260506190123 | 17 | 77 | 6.4 | 12.9 | 0.00 | 0.00 | 0.00 | 51 | 1016.5 |
| 20260506185621 | 17 | 71 | 8.0 | 12.9 | 0.00 | 0.00 | 0.00 | 52 | 1016.1 |
| 20260506185116 | 17 | 59 | 4.8 | 12.9 | 0.00 | 0.00 | 0.00 | 55 | 1016.3 |
| 20260506184614 | 17 | 87 | 6.4 | 14.5 | 0.00 | 0.00 | 0.00 | 54 | 1016.5 |
| 20260506184111 | 17 | 56 | 9.7 | 12.9 | 0.00 | 0.00 | 0.00 | 53 | 1016.4 |
| 20260506183608 | 17 | 40 | 6.4 | 19.3 | 0.00 | 0.00 | 0.00 | 54 | 1016.5 |
| 20260506183104 | 17 | 72 | 6.4 | 14.5 | 0.00 | 0.00 | 0.00 | 54 | 1016.3 |
| 20260506182602 | 16 | 75 | 12.9 | 16.1 | 0.00 | 0.00 | 0.00 | 56 | 1016.5 |
| 20260506182058 | 17 | 98 | 12.9 | 20.9 | 0.00 | 0.00 | 0.00 | 53 | 1016.8 |
| 20260506181556 | 16 | 57 | 14.5 | 19.3 | 0.00 | 0.00 | 0.00 | 53 | 1016.4 |
| 20260506181053 | 17 | 67 | 6.4 | 17.7 | 0.00 | 0.00 | 0.00 | 54 | 1016.4 |
| 20260506180550 | 16 | 57 | 3.2 | 9.7 | 0.00 | 0.00 | 0.00 | 55 | 1016.4 |
| 20260506180046 | 15 | 35 | 8.0 | 17.7 | 0.00 | 0.00 | 0.00 | 55 | 1016.7 |
| 20260506175542 | 15 | 76 | 8.0 | 25.7 | 0.00 | 0.00 | 0.00 | 57 | 1016.7 |
| 20260506175039 | 15 | 45 | 16.1 | 17.7 | 0.00 | 0.00 | 0.00 | 55 | 1016.7 |
| 20260506174538 | 15 | 64 | 9.7 | 14.5 | 0.00 | 0.00 | 0.00 | 57 | 1016.9 |
| 20260506174033 | 15 | 88 | 8.0 | 14.5 | 0.00 | 0.00 | 0.00 | 55 | 1016.9 |
| 20260506173531 | 15 | 70 | 14.5 | 19.3 | 0.00 | 0.00 | 0.00 | 55 | 1017.3 |
| 20260506173028 | 15 | 99 | 6.4 | 16.1 | 0.00 | 0.00 | 0.00 | 54 | 1017.4 |
| 20260506172526 | 15 | 66 | 9.7 | 9.7 | 0.00 | 0.00 | 0.00 | 59 | 1017.5 |
| 20260506172021 | 15 | 78 | 6.4 | 9.7 | 0.00 | 0.00 | 0.00 | 57 | 1017.3 |
| 20260506171519 | 15 | 70 | 9.7 | 17.7 | 0.00 | 0.00 | 0.00 | 57 | 1017.8 |
| 20260506171017 | 15 | 75 | 8.0 | 16.1 | 0.00 | 0.00 | 0.00 | 57 | 1017.5 |
| 20260506170514 | 15 | 74 | 11.3 | 14.5 | 0.00 | 0.00 | 0.00 | 57 | 1017.5 |
| 20260506170012 | 14 | 62 | 12.9 | 16.1 | 0.00 | 0.00 | 0.00 | 57 | 1017.8 |
| 20260506165510 | 15 | 86 | 11.3 | 12.9 | 0.00 | 0.00 | 0.00 | 58 | 1017.7 |
| 20260506165006 | 14 | 98 | 6.4 | 12.9 | 0.00 | 0.00 | 0.00 | 59 | 1017.9 |
| 20260506164502 | 14 | 64 | 9.7 | 19.3 | 0.00 | 0.00 | 0.00 | 58 | 1017.8 |
| 20260506164000 | 13 | 52 | 4.8 | 17.7 | 0.00 | 0.00 | 0.00 | 60 | 1017.9 |
| 20260506163455 | 13 | 51 | 8.0 | 16.1 | 0.00 | 0.00 | 0.00 | 59 | 1017.7 |
| 20260506162950 | 14 | 76 | 6.4 | 9.7 | 0.00 | 0.00 | 0.00 | 61 | 1017.9 |
| 20260506162448 | 14 | 52 | 6.4 | 17.7 | 0.00 | 0.00 | 0.00 | 59 | 1017.5 |
| 20260506161945 | 13 | 40 | 6.4 | 17.7 | 0.00 | 0.00 | 0.00 | 60 | 1017.8 |
| 20260506161443 | 13 | 30 | 11.3 | 17.7 | 0.00 | 0.00 | 0.00 | 60 | 1017.8 |
| 20260506160940 | 13 | 58 | 8.0 | 17.7 | 0.00 | 0.00 | 0.00 | 59 | 1017.9 |
| 20260506160438 | 13 | 67 | 8.0 | 11.3 | 0.00 | 0.00 | 0.00 | 60 | 1017.7 |
| 20260506155935 | 13 | 69 | 4.8 | 12.9 | 0.00 | 0.00 | 0.00 | 64 | 1017.9 |
| 20260506155433 | 13 | 58 | 6.4 | 17.7 | 0.00 | 0.00 | 0.00 | 60 | 1017.7 |
| 20260506153554 | 12 | 51 | 11.3 | 19.3 | 0.00 | 0.00 | 0.00 | 63 | 1017.8 |
| 20260506153051 | 12 | 54 | 14.5 | 17.7 | 0.00 | 0.00 | 0.00 | 64 | 1017.9 |
| 20260506152548 | 12 | 51 | 12.9 | 16.1 | 0.00 | 0.00 | 0.00 | 63 | 1017.8 |
| 20260506152046 | 12 | 48 | 9.7 | 20.9 | 0.00 | 0.00 | 0.00 | 64 | 1017.7 |
| 20260506151544 | 12 | 42 | 8.0 | 16.1 | 0.00 | 0.00 | 0.00 | 65 | 1017.5 |
| 20260506151041 | 12 | 51 | 17.7 | 20.9 | 0.00 | 0.00 | 0.00 | 64 | 1017.5 |
| 20260506150537 | 12 | 78 | 8.0 | 14.5 | 0.00 | 0.00 | 0.00 | 66 | 1017.5 |
| 20260506150034 | 11 | 50 | 8.0 | 17.7 | 0.00 | 0.00 | 0.00 | 66 | 1017.3 |
| 20260506145531 | 11 | 58 | 9.7 | 17.7 | 0.00 | 0.00 | 0.00 | 68 | 1017.2 |
| 20260506145028 | 11 | 65 | 9.7 | 16.1 | 0.00 | 0.00 | 0.00 | 69 | 1017.0 |
| 20260506144525 | 11 | 50 | 12.9 | 14.5 | 0.00 | 0.00 | 0.00 | 69 | 1016.9 |
| 20260506144022 | 11 | 40 | 12.9 | 16.1 | 0.00 | 0.00 | 0.00 | 69 | 1017.0 |
| 20260506143520 | 11 | 57 | 9.7 | 17.7 | 0.00 | 0.00 | 0.00 | 70 | 1016.9 |
| 20260506143018 | 11 | 120 | 9.7 | 16.1 | 0.00 | 0.00 | 0.00 | 70 | 1016.5 |
| 20260506142515 | 11 | 70 | 9.7 | 19.3 | 0.00 | 0.00 | 0.00 | 70 | 1016.4 |
| 20260506142014 | 10 | 63 | 12.9 | 22.5 | 0.00 | 0.00 | 0.00 | 71 | 1016.4 |
| 20260506141511 | 10 | 1 | 1.6 | 16.1 | 0.00 | 0.00 | 0.00 | 71 | 1016.5 |
| 20260506141009 | 10 | 71 | 12.9 | 20.9 | 0.00 | 0.00 | 0.00 | 71 | 1016.5 |
| 20260506140506 | 10 | 59 | 9.7 | 16.1 | 0.00 | 0.00 | 0.00 | 71 | 1016.4 |
| 20260506140004 | 11 | 42 | 12.9 | 20.9 | 0.00 | 0.00 | 0.00 | 70 | 1016.4 |
| 20260506135500 | 10 | 74 | 9.7 | 25.7 | 0.00 | 0.00 | 0.00 | 71 | 1016.2 |
| 20260506134956 | 10 | 75 | 14.5 | 20.9 | 0.00 | 0.00 | 0.00 | 71 | 1016.1 |
| 20260506134452 | 10 | 51 | 14.5 | 20.9 | 0.00 | 0.00 | 0.00 | 70 | 1016.0 |
| 20260506133949 | 10 | 68 | 9.7 | 9.7 | 0.00 | 0.00 | 0.00 | 71 | 1016.1 |
| 20260506133446 | 10 | 60 | 12.9 | 22.5 | 0.00 | 0.00 | 0.00 | 70 | 1016.1 |
| 20260506132943 | 10 | 74 | 6.4 | 12.9 | 0.00 | 0.00 | 0.00 | 71 | 1016.0 |
| 20260506132440 | 10 | 118 | 3.2 | 11.3 | 0.00 | 0.00 | 0.00 | 70 | 1016.2 |
| 20260506131937 | 10 | 68 | 9.7 | 17.7 | 0.00 | 0.00 | 0.00 | 70 | 1016.2 |
| 20260506131434 | 10 | 73 | 9.7 | 22.5 | 0.00 | 0.00 | 0.00 | 70 | 1016.1 |
| 20260506130931 | 10 | 91 | 11.3 | 22.5 | 0.00 | 0.00 | 0.00 | 71 | 1016.0 |
| 20260506130427 | 10 | 85 | 9.7 | 14.5 | 0.00 | 0.00 | 0.00 | 71 | 1016.0 |
| 20260506125925 | 10 | 96 | 4.8 | 16.1 | 0.00 | 0.00 | 0.00 | 72 | 1016.1 |
| 20260506125423 | 10 | 92 | 6.4 | 17.7 | 0.00 | 0.00 | 0.00 | 72 | 1015.7 |
| 20260506124922 | 10 | 74 | 4.8 | 14.5 | 0.00 | 0.00 | 0.00 | 73 | 1015.6 |
| 20260506124419 | 10 | 74 | 8.0 | 14.5 | 0.00 | 0.00 | 0.00 | 72 | 1015.6 |
| 20260506123916 | 10 | 73 | 9.7 | 17.7 | 0.00 | 0.00 | 0.00 | 72 | 1015.6 |
| 20260506123414 | 10 | 71 | 19.3 | 20.9 | 0.00 | 0.00 | 0.00 | 72 | 1015.6 |
| 20260506122911 | 10 | 58 | 6.4 | 16.1 | 0.00 | 0.00 | 0.00 | 71 | 1015.7 |
| 20260506122408 | 10 | 55 | 4.8 | 17.7 | 0.00 | 0.00 | 0.00 | 71 | 1015.7 |
| 20260506121906 | 10 | 75 | 8.0 | 17.7 | 0.00 | 0.00 | 0.00 | 71 | 1015.7 |
| 20260506121403 | 10 | 75 | 8.0 | 14.5 | 0.00 | 0.00 | 0.00 | 70 | 1015.7 |
| 20260506120900 | 10 | 45 | 3.2 | 16.1 | 0.00 | 0.00 | 0.00 | 70 | 1015.5 |
| 20260506120357 | 10 | 47 | 9.7 | 16.1 | 0.00 | 0.00 | 0.00 | 70 | 1015.2 |
| 20260506115855 | 10 | 74 | 6.4 | 17.7 | 0.00 | 0.00 | 0.00 | 69 | 1015.4 |
| 20260506115353 | 10 | 72 | 9.7 | 9.7 | 0.00 | 0.00 | 0.00 | 69 | 1015.0 |
| 20260506114851 | 10 | 70 | 4.8 | 14.5 | 0.00 | 0.00 | 0.00 | 69 | 1015.0 |
| 20260506114348 | 10 | 47 | 9.7 | 12.9 | 0.00 | 0.00 | 0.00 | 69 | 1014.8 |
| 20260506113847 | 10 | 120 | 8.0 | 11.3 | 0.00 | 0.00 | 0.00 | 68 | 1014.8 |
| 20260506113344 | 10 | 76 | 8.0 | 17.7 | 0.00 | 0.00 | 0.00 | 68 | 1015.0 |
| 20260506112840 | 10 | 54 | 12.9 | 16.1 | 0.00 | 0.00 | 0.00 | 67 | 1015.1 |
| 20260506112337 | 10 | 36 | 11.3 | 17.7 | 0.00 | 0.00 | 0.00 | 67 | 1015.0 |
| 20260506111835 | 10 | 78 | 6.4 | 14.5 | 0.00 | 0.00 | 0.00 | 67 | 1014.9 |
| 20260506111333 | 10 | 70 | 11.3 | 17.7 | 0.00 | 0.00 | 0.00 | 67 | 1014.7 |
| 20260506110830 | 10 | 31 | 4.8 | 20.9 | 0.00 | 0.00 | 0.00 | 66 | 1014.4 |
| 20260506110327 | 10 | 64 | 11.3 | 17.7 | 0.00 | 0.00 | 0.00 | 66 | 1014.5 |
| 20260506105824 | 10 | 59 | 9.7 | 11.3 | 0.00 | 0.00 | 0.00 | 67 | 1014.7 |
| 20260506105320 | 10 | 65 | 16.1 | 17.7 | 0.00 | 0.00 | 0.00 | 66 | 1014.1 |
| 20260506104818 | 10 | 79 | 8.0 | 11.3 | 0.00 | 0.00 | 0.00 | 66 | 1014.4 |
| 20260506104316 | 10 | 91 | 4.8 | 19.3 | 0.00 | 0.00 | 0.00 | 66 | 1014.8 |
| 20260506103813 | 10 | 72 | 9.7 | 17.7 | 0.00 | 0.00 | 0.00 | 66 | 1014.8 |
| 20260506103310 | 10 | 70 | 14.5 | 16.1 | 0.00 | 0.00 | 0.00 | 66 | 1014.8 |
| 20260506102808 | 10 | 69 | 8.0 | 12.9 | 0.00 | 0.00 | 0.00 | 66 | 1014.8 |
| 20260506102306 | 10 | 118 | 8.0 | 20.9 | 0.00 | 0.00 | 0.00 | 66 | 1014.9 |
| 20260506101803 | 10 | 73 | 6.4 | 9.7 | 0.00 | 0.00 | 0.00 | 67 | 1014.8 |
| 20260506101258 | 10 | 57 | 8.0 | 11.3 | 0.00 | 0.00 | 0.00 | 67 | 1014.5 |
| 20260506100757 | 10 | 92 | 6.4 | 19.3 | 0.00 | 0.00 | 0.00 | 66 | 1014.7 |
| 20260506100254 | 10 | 65 | 3.2 | 12.9 | 0.00 | 0.00 | 0.00 | 66 | 1014.5 |
| 20260506095753 | 10 | 34 | 6.4 | 17.7 | 0.00 | 0.00 | 0.00 | 66 | 1014.5 |
| 20260506095249 | 10 | 51 | 4.8 | 9.7 | 0.00 | 0.00 | 0.00 | 66 | 1014.5 |
| 20260506094746 | 10 | 76 | 9.7 | 16.1 | 0.00 | 0.00 | 0.00 | 66 | 1014.7 |
| 20260506094244 | 10 | 54 | 6.4 | 14.5 | 0.00 | 0.00 | 0.00 | 66 | 1014.3 |
| 20260506093743 | 10 | 77 | 11.3 | 12.9 | 0.00 | 0.00 | 0.00 | 66 | 1014.3 |
| 20260506093239 | 10 | 62 | 3.2 | 9.7 | 0.00 | 0.00 | 0.00 | 66 | 1014.7 |
| 20260506092737 | 10 | 69 | 3.2 | 8.0 | 0.00 | 0.00 | 0.00 | 65 | 1014.4 |
| 20260506092235 | 10 | 109 | 6.4 | 6.4 | 0.00 | 0.00 | 0.00 | 65 | 1014.5 |
| 20260506091732 | 10 | 110 | 4.8 | 6.4 | 0.00 | 0.00 | 0.00 | 65 | 1014.4 |
| 20260506091229 | 10 | 50 | 11.3 | 14.5 | 0.00 | 0.00 | 0.00 | 64 | 1014.3 |
| 20260506090727 | 10 | 115 | 6.4 | 12.9 | 0.00 | 0.00 | 0.00 | 64 | 1014.3 |
| 20260506090224 | 10 | 70 | 4.8 | 12.9 | 0.00 | 0.00 | 0.00 | 65 | 1014.3 |
| 20260506085721 | 10 | 92 | 9.7 | 11.3 | 0.00 | 0.00 | 0.00 | 65 | 1014.3 |
| 20260506085217 | 10 | 80 | 6.4 | 11.3 | 0.00 | 0.00 | 0.00 | 66 | 1014.2 |
| 20260506084714 | 10 | 55 | 8.0 | 11.3 | 0.00 | 0.00 | 0.00 | 66 | 1014.3 |
| 20260506084210 | 10 | 71 | 6.4 | 14.5 | 0.00 | 0.00 | 0.00 | 66 | 1014.5 |
| 20260506083707 | 10 | 86 | 6.4 | 12.9 | 0.00 | 0.00 | 0.00 | 67 | 1014.4 |
| 20260506083205 | 10 | 79 | 4.8 | 11.3 | 0.00 | 0.00 | 0.00 | 68 | 1014.2 |
| 20260506082702 | 10 | 77 | 4.8 | 8.0 | 0.00 | 0.00 | 0.00 | 69 | 1013.9 |
| 20260506082202 | 10 | 63 | 9.7 | 9.7 | 0.00 | 0.00 | 0.00 | 69 | 1013.9 |
| 20260506081700 | 10 | 92 | 4.8 | 8.0 | 0.00 | 0.00 | 0.00 | 70 | 1013.9 |
| 20260506081158 | 10 | 67 | 4.8 | 8.0 | 0.00 | 0.00 | 0.00 | 70 | 1013.9 |
| 20260506080655 | 10 | 78 | 6.4 | 8.0 | 0.00 | 0.00 | 0.00 | 71 | 1013.7 |
| 20260506080152 | 10 | 70 | 6.4 | 8.0 | 0.00 | 0.00 | 0.00 | 72 | 1013.2 |
| 20260506073136 | 10 | 77 | 1.6 | 11.3 | 0.00 | 0.00 | 0.00 | 74 | 1012.9 |
| 20260506072632 | 10 | 62 | 9.7 | 16.1 | 0.00 | 0.00 | 0.00 | 74 | 1012.7 |
| 20260506072131 | 10 | 24 | 4.8 | 12.9 | 0.00 | 0.00 | 0.00 | 74 | 1012.8 |
| 20260506071628 | 10 | 54 | 6.4 | 14.5 | 0.00 | 0.00 | 0.00 | 75 | 1012.8 |
| 20260506071125 | 10 | 47 | 12.9 | 17.7 | 0.00 | 0.00 | 0.00 | 74 | 1012.9 |
| 20260506070622 | 10 | 66 | 4.8 | 17.7 | 0.00 | 0.00 | 0.00 | 75 | 1012.7 |
| 20260506070119 | 10 | 43 | 9.7 | 16.1 | 0.00 | 0.00 | 0.00 | 75 | 1012.6 |
| 20260506062056 | 10 | 87 | 8.0 | 14.5 | 0.00 | 0.00 | 0.00 | 77 | 1012.6 |
| 20260506061552 | 10 | 63 | 6.4 | 12.9 | 0.00 | 0.00 | 0.00 | 77 | 1012.8 |
| 20260506061050 | 10 | 97 | 1.6 | 9.7 | 0.00 | 0.00 | 0.00 | 77 | 1012.7 |
| 20260506060548 | 10 | 70 | 8.0 | 16.1 | 0.00 | 0.00 | 0.00 | 77 | 1012.5 |
| 20260506051017 | 10 | 80 | 6.4 | 14.5 | 0.00 | 0.00 | 0.00 | 77 | 1012.5 |
| 20260506050515 | 10 | 69 | 9.7 | 14.5 | 0.00 | 0.00 | 0.00 | 78 | 1012.3 |
| 20260506045005 | 10 | 91 | 12.9 | 16.1 | 0.00 | 0.00 | 0.00 | 77 | 1012.5 |
| 20260506044503 | 10 | 83 | 6.4 | 9.7 | 0.00 | 0.00 | 0.00 | 77 | 1012.5 |
| 20260506043959 | 10 | 73 | 8.0 | 14.5 | 0.00 | 0.00 | 0.00 | 77 | 1012.3 |
| 20260506043456 | 10 | 53 | 9.7 | 12.9 | 0.00 | 0.00 | 0.00 | 77 | 1012.5 |
| 20260506042955 | 10 | 85 | 8.0 | 12.9 | 0.00 | 0.00 | 0.00 | 77 | 1012.2 |
| 20260506042454 | 10 | 52 | 8.0 | 11.3 | 0.00 | 0.00 | 0.00 | 77 | 1012.1 |
| 20260506041951 | 10 | 75 | 9.7 | 20.9 | 0.00 | 0.00 | 0.00 | 76 | 1012.4 |
| 20260506041450 | 10 | 128 | 8.0 | 17.7 | 0.00 | 0.00 | 0.00 | 76 | 1012.3 |
| 20260506040947 | 10 | 64 | 8.0 | 19.3 | 0.00 | 0.00 | 0.00 | 76 | 1012.4 |
| 20260506040444 | 10 | 70 | 9.7 | 19.3 | 0.00 | 0.00 | 0.00 | 76 | 1012.2 |
| 20260506035940 | 10 | 55 | 17.7 | 20.9 | 0.00 | 0.00 | 0.00 | 76 | 1012.6 |
| 20260506035437 | 10 | 79 | 14.5 | 20.9 | 0.00 | 0.00 | 0.00 | 76 | 1012.3 |
| 20260506034934 | 10 | 62 | 11.3 | 16.1 | 0.00 | 0.00 | 0.00 | 77 | 1012.5 |
| 20260506034431 | 10 | 62 | 9.7 | 19.3 | 0.00 | 0.00 | 0.00 | 77 | 1012.4 |
| 20260506033928 | 10 | 63 | 9.7 | 14.5 | 0.00 | 0.00 | 0.00 | 78 | 1012.5 |
| 20260506033426 | 10 | 104 | 4.8 | 16.1 | 0.00 | 0.00 | 0.00 | 78 | 1012.2 |
| 20260506032922 | 10 | 25 | 9.7 | 17.7 | 0.00 | 0.00 | 0.00 | 77 | 1012.3 |
| 20260506032419 | 10 | 51 | 8.0 | 16.1 | 0.00 | 0.00 | 0.00 | 78 | 1012.3 |
| 20260506031916 | 10 | 91 | 6.4 | 17.7 | 0.00 | 0.00 | 0.00 | 77 | 1012.2 |
| 20260506031413 | 10 | 62 | 16.1 | 20.9 | 0.00 | 0.00 | 0.00 | 77 | 1012.2 |
| 20260506030911 | 11 | 55 | 9.7 | 17.7 | 0.00 | 0.00 | 0.00 | 76 | 1012.1 |
| 20260506030409 | 11 | 84 | 8.0 | 12.9 | 0.00 | 0.00 | 0.00 | 76 | 1012.1 |
| 20260506025905 | 11 | 58 | 8.0 | 17.7 | 0.00 | 0.00 | 0.00 | 75 | 1011.8 |
| 20260506025402 | 11 | 71 | 6.4 | 17.7 | 0.00 | 0.00 | 0.00 | 76 | 1011.8 |
| 20260506024859 | 11 | 78 | 12.9 | 19.3 | 0.00 | 0.00 | 0.00 | 75 | 1011.6 |
| 20260506024356 | 11 | 49 | 9.7 | 12.9 | 0.00 | 0.00 | 0.00 | 75 | 1011.6 |
| 20260506023852 | 11 | 28 | 8.0 | 20.9 | 0.00 | 0.00 | 0.00 | 75 | 1011.6 |
| 20260506023349 | 11 | 77 | 11.3 | 16.1 | 0.00 | 0.00 | 0.00 | 75 | 1011.6 |